Back to catalog

STARLINK-30336

AliveCommunicationsVLEO
NORAD 57703·PAYLOAD·🇺🇸 United States

Launched Aug 27, 2023 from Cape Canaveral Space Force Station

Loading…

Next Passes (next 24 hours)

TLE

FreshSource: CelesTrak SupGP

Epoch: Sep 14, 2026, 15:06 UTC

1 57703C 23129F   26257.62965278  .00028033  00000+0  10157-2 0  2574
2 57703  42.9993 130.8708 0001412 260.9819 275.6625 15.27552481    14

Track STARLINK-30336 in real time with AllMySat

Download on the App Store